Weather History for Wenatchee, WA

Change the Weather History Date:

Saturday, October 2, 2010

  Actual Average Record
Temperature  
Mean Temperature 61 °F 51 °F  
Max Temperature 79 °F 65 °F 83 °F (1988)
Min Temperature 43 °F 37 °F 31 °F (2014)
Degree Days  
Heating Degree Days 4 14  
Month to date heating degree days 7 27  
Since 1 July heating degree days 404 383  
Cooling Degree Days 0 0  
Month to date cooling degree days 0 0  
Year to date cooling degree days 183 249  
Growing Degree Days 17 (Base 50)    
Moisture  
Dew Point 48 °F    
Average Humidity 56    
Maximum Humidity 86    
Minimum Humidity 29    
Precipitation  
Precipitation 0.00 in 0.03 in 0.47 in (1967)
Month to date precipitation 0.00 0.05  
Year to date precipitation 12.43 11.10  
Snow  
Snow 0.00 in 0.00 in - ()
Month to date snowfall 0.0 0.0  
Since 1 July snowfall 0.0 0.0  
Since 1 September snowfall 0.0 0.0  
Snow Depth 0.00 in    
Sea Level Pressure  
Sea Level Pressure 29.93 in    
Wind  
Wind Speed 5 mph (West)    
Max Wind Speed 10 mph    
Max Gust Speed -    
Visibility 10 miles    
Events      
T = Trace of Precipitation, MM = Missing Value Source: NWS Daily Summary

Daily Weather History Graph

Daily Weather History Graph

Search for Another Location

Airport:

Trip Planner

Search our weather history database for the weather conditions in past years. The results will help you decide how hot, cold, wet, or windy it might be!

Date:

Astronomy

Oct. 02, 2010 Rise Set
Actual Time 7:01 AM PDT 6:38 PM PDT
Civil Twilight 6:30 AM PDT 7:08 PM PDT
Nautical Twilight 5:55 AM PDT 7:44 PM PDT
Astronomical Twilight 5:18 AM PDT 8:20 PM PDT
Moon 12:25 AM PDT (10/2) 3:51 PM PDT (10/2)
Length of Visible Light 12h 37m
Length of Day
11h 36m
Waning Crescent, 32% of the Moon is Illuminated
Oct 2
Waning Crescent
Oct 7
New
Oct 14
First Quarter
Oct 22
Full
Oct 30
Last Quarter

Hourly Weather History & Observations

Time (PDT) Temp. Dew Point Humidity Pressure Visibility Wind Dir Wind Speed Gust Speed Precip Events Conditions
12:55 AM 61.0 °F 52.0 °F 72% 29.99 in 10.0 mi WNW 5.8 mph - N/A   Clear
1:55 AM 64.0 °F 52.0 °F 65% 29.99 in 10.0 mi West 8.1 mph - N/A   Clear
2:55 AM 60.1 °F 52.0 °F 75% 29.99 in 10.0 mi West 8.1 mph - N/A   Clear
3:55 AM 59.0 °F 52.0 °F 78% 29.99 in 10.0 mi WNW 9.2 mph - N/A   Clear
4:55 AM 57.9 °F 51.1 °F 78% 30.00 in 10.0 mi West 8.1 mph - N/A   Clear
5:55 AM 57.9 °F 51.1 °F 78% 30.01 in 10.0 mi WNW 10.4 mph - N/A   Clear
6:55 AM 55.0 °F 51.1 °F 86% 30.02 in 10.0 mi NW 9.2 mph - N/A   Clear
7:55 AM 55.0 °F 51.1 °F 86% 30.03 in 10.0 mi West 3.5 mph - N/A   Clear
8:55 AM 59.0 °F 50.0 °F 72% 30.03 in 10.0 mi West 5.8 mph - N/A   Clear
9:55 AM 62.1 °F 46.9 °F 58% 30.03 in 10.0 mi West 6.9 mph - N/A   Clear
10:55 AM 64.0 °F 48.9 °F 58% 30.01 in 10.0 mi Calm Calm - N/A   Clear
11:55 AM 69.1 °F 46.0 °F 44% 29.99 in 10.0 mi West 3.5 mph - N/A   Clear
12:55 PM 72.0 °F 46.0 °F 40% 29.97 in 10.0 mi Calm Calm - N/A   Clear
1:55 PM 75.0 °F 46.9 °F 37% 29.94 in 10.0 mi Calm Calm - N/A   Clear
2:55 PM 78.1 °F 48.0 °F 35% 29.90 in 10.0 mi West 4.6 mph - N/A   Clear
3:55 PM 79.0 °F 46.0 °F 31% 29.87 in 10.0 mi SW 4.6 mph - N/A   Clear
4:55 PM 79.0 °F 45.0 °F 30% 29.85 in 10.0 mi SW 3.5 mph - N/A   Clear
5:55 PM 79.0 °F 44.1 °F 29% 29.83 in 10.0 mi Calm Calm - N/A   Clear
6:55 PM 71.1 °F 48.9 °F 45% 29.83 in 10.0 mi Calm Calm - N/A   Clear
7:55 PM 69.1 °F 46.0 °F 44% 29.83 in 10.0 mi Calm Calm - N/A   Clear
8:55 PM 66.9 °F 46.0 °F 47% 29.83 in 10.0 mi NW 4.6 mph - N/A   Clear
9:55 PM 64.9 °F 46.9 °F 52% 29.83 in 10.0 mi NNW 4.6 mph - N/A   Clear
10:55 PM 62.1 °F 46.0 °F 56% 29.83 in 10.0 mi West 4.6 mph - N/A   Clear
11:55 PM 62.1 °F 46.0 °F 56% 29.83 in 10.0 mi Calm Calm - N/A   Clear